Index of /shared/routes/3d8b63a291c9155799c147b16e76d1e4

[ICO]NameLast modifiedSizeDescription

[PARENTDIR]Parent Directory  -  
[   ]140422-1942-Home.kmz2014-04-23 03:17 11K 
[   ]140422-1942-Home.kmz.php2014-04-23 03:17 613  
[IMG]140422-1942-Home.kmz.png2014-04-23 03:17 0  
[   ]140602-1959-Home.kmz2014-06-03 03:40 12K 
[   ]140602-1959-Home.kmz.php2014-06-03 03:40 612  
[IMG]140602-1959-Home.kmz.png2014-06-03 03:40 0  
[   ]140605-2001-Home.kmz2014-06-06 03:39 11K 
[   ]140605-2001-Home.kmz.php2014-06-06 03:39 620  
[IMG]140605-2001-Home.kmz.png2014-06-06 03:39 0  
[   ]140606-1954-Home.kmz2014-06-07 03:34 12K 
[   ]140606-1954-Home.kmz.php2014-06-07 03:34 612  
[IMG]140606-1954-Home.kmz.png2014-06-07 03:34 0  
[   ]140607-1006-Home.kmz2014-06-09 03:24 5.8K 
[   ]140607-1006-Home.kmz.php2014-06-09 03:24 652  
[IMG]140607-1006-Home.kmz.png2014-06-09 03:24 0  
[   ]140608-2048-Home.kmz2014-06-09 04:10 7.3K 
[   ]140608-2048-Home.kmz.php2014-06-09 04:10 622  
[IMG]140608-2048-Home.kmz.png2014-06-09 04:10 0  
[   ]140625-2013-Home.kmz2014-06-26 03:43 9.9K 
[   ]140625-2013-Home.kmz.php2014-06-26 03:43 613  
[IMG]140625-2013-Home.kmz.png2014-06-26 03:43 0  
[   ]140626-2003-Home.kmz2014-06-27 03:39 12K 
[   ]140626-2003-Home.kmz.php2014-06-27 03:39 613  
[IMG]140626-2003-Home.kmz.png2014-06-27 03:39 0  
[   ]140629-2038-Home.kmz2014-06-30 04:13 11K 
[   ]140629-2038-Home.kmz.php2014-06-30 04:13 624  
[IMG]140629-2038-Home.kmz.png2014-06-30 04:13 0  
[   ]140630-2009-Home.kmz2014-07-01 03:51 13K 
[   ]140630-2009-Home.kmz.php2014-07-01 03:51 621  
[IMG]140630-2009-Home.kmz.png2014-07-01 03:51 0  
[   ]140701-2014-Home.kmz2014-07-02 04:21 15K 
[   ]140701-2014-Home.kmz.php2014-07-02 04:21 620  
[IMG]140701-2014-Home.kmz.png2014-07-02 04:21 0  
[   ]140706-2008-Home.kmz2014-07-07 23:55 15K 
[   ]140706-2008-Home.kmz.php2014-07-07 23:55 613  
[IMG]140706-2008-Home.kmz.png2014-07-07 23:55 0  
[   ]140708-2014-Home.kmz2014-07-09 04:05 15K 
[   ]140708-2014-Home.kmz.php2014-07-09 04:05 620  
[IMG]140708-2014-Home.kmz.png2014-07-09 04:05 0  
[   ]140710-2017-Ponderosa.kmz2014-07-11 04:14 17K 
[   ]140710-2017-Ponderosa.kmz.php2014-07-11 04:14 649  
[IMG]140710-2017-Ponderosa.kmz.png2014-07-11 04:14 0  
[   ]140715-2025-Ponderosa.kmz2014-07-16 04:04 6.9K 
[   ]140715-2025-Ponderosa.kmz.php2014-07-16 04:04 618  
[IMG]140715-2025-Ponderosa.kmz.png2014-07-16 04:04 0  
[   ]140716-2012-Ponderosa.kmz2014-07-17 05:09 17K 
[   ]140716-2012-Ponderosa.kmz.php2014-07-17 05:09 620  
[IMG]140716-2012-Ponderosa.kmz.png2014-07-17 05:09 0  
[   ]140722-2021-Ponderosa.kmz2014-07-23 03:53 10K 
[   ]140722-2021-Ponderosa.kmz.php2014-07-23 03:53 618  
[IMG]140722-2021-Ponderosa.kmz.png2014-07-23 03:53 0  
[   ]140723-2014-Ponderosa.kmz2014-07-24 04:04 16K 
[   ]140723-2014-Ponderosa.kmz.php2014-07-24 04:04 628  
[IMG]140723-2014-Ponderosa.kmz.png2014-07-24 04:04 0  
[   ]140728-2013-Ponderosa.kmz2014-07-29 05:15 15K 
[   ]140728-2013-Ponderosa.kmz.php2014-07-29 05:15 626  
[IMG]140728-2013-Ponderosa.kmz.png2014-07-29 05:15 0  
[   ]140729-2014-Ponderosa.kmz2014-07-30 03:46 10K 
[   ]140729-2014-Ponderosa.kmz.php2014-07-30 03:46 626  
[IMG]140729-2014-Ponderosa.kmz.png2014-07-30 03:46 0  
[   ]140818-1952-Ponderosa.kmz2014-08-19 03:35 13K 
[   ]140818-1952-Ponderosa.kmz.php2014-08-19 03:35 618  
[IMG]140818-1952-Ponderosa.kmz.png2014-08-19 03:35 0  
[   ]140819-1934-Ponderosa.kmz2014-08-20 03:24 16K 
[   ]140819-1934-Ponderosa.kmz.php2014-08-20 03:24 639  
[IMG]140819-1934-Ponderosa.kmz.png2014-08-20 03:24 0  
[   ]140824-0856-Flea.kmz2014-08-26 02:37 24K 
[   ]140824-0856-Flea.kmz.php2014-08-26 02:37 622  
[IMG]140824-0856-Flea.kmz.png2014-08-26 02:37 0  
[   ]140825-1939-Ponderosa.kmz2014-08-26 03:21 13K 
[   ]140825-1939-Ponderosa.kmz.php2014-08-26 03:21 618  
[IMG]140825-1939-Ponderosa.kmz.png2014-08-26 03:21 0  
[   ]140826-1902-Ponderosa.kmz2014-08-27 03:15 14K 
[   ]140826-1902-Ponderosa.kmz.php2014-08-27 03:15 631  
[IMG]140826-1902-Ponderosa.kmz.png2014-08-27 03:15 0  
[   ]140828-1937-Ponderosa.kmz2014-08-29 05:22 14K 
[   ]140828-1937-Ponderosa.kmz.php2014-08-29 05:22 629  
[IMG]140828-1937-Ponderosa.kmz.png2014-08-29 05:22 0  
[   ]140916-1906-Ponderosa.kmz2014-09-18 03:32 9.0K 
[   ]140916-1906-Ponderosa.kmz.php2014-09-18 03:32 618  
[IMG]140916-1906-Ponderosa.kmz.png2014-09-18 03:32 0  

Apache/2.4.29 (Ubuntu) Server at kineticgps.com Port 80